iso_date,epoch_date,Year,Hour,Min,DOY,POS_DOY,Lat,Lon,BP,Ts,Ta,has_bp,has_ts,has_ta,BuoyID,Buoy_Type,Buoy_Owner,Logistics,Hemisphere
2015-09-05T08:00:57Z,1441440058,2015,8,0,248.334,248.334,82.7554,124.4091,-999.00,-999.00,-999.0,no,no,no,90091,ITP,WHOI,NABOS,North
2015-09-05T09:00:00Z,1441443600,2015,9,0,248.375,248.375,82.751,124.445,-999.00,-999.00,-999.0,no,no,no,90091,ITP,WHOI,NABOS,North
2015-09-05T10:00:28Z,1441447229,2015,10,0,248.417,248.417,82.7464,124.4805,-999.00,-999.00,-999.0,no,no,no,90091,ITP,WHOI,NABOS,North
2015-09-05T11:00:57Z,1441450858,2015,11,0,248.459,248.459,82.7415,124.5121,-999.00,-999.00,-999.0,no,no,no,90091,ITP,WHOI,NABOS,North
2015-09-05T11:36:57Z,1441453018,2015,11,37,248.484,248.484,82.7389,124.5288,-999.00,-999.00,-999.0,no,no,no,90091,ITP,WHOI,NABOS,North
2015-09-05T12:00:00Z,1441454400,2015,12,0,248.5,248.5,82.7371,124.5378,-999.00,-999.00,-999.0,no,no,no,90091,ITP,WHOI,NABOS,North
2015-09-05T13:00:28Z,1441458029,2015,13,0,248.542,248.542,82.7333,124.5559,-999.00,-999.00,-999.0,no,no,no,90091,ITP,WHOI,NABOS,North
2015-09-05T14:00:57Z,1441461658,2015,14,0,248.584,248.584,82.7304,124.5723,-999.00,-999.00,-999.0,no,no,no,90091,ITP,WHOI,NABOS,North
2015-09-05T15:00:00Z,1441465200,2015,15,0,248.625,248.625,82.7277,124.5843,-999.00,-999.00,-999.0,no,no,no,90091,ITP,WHOI,NABOS,North
2015-09-05T16:00:28Z,1441468829,2015,16,0,248.667,248.667,82.7255,124.5933,-999.00,-999.00,-999.0,no,no,no,90091,ITP,WHOI,NABOS,North
2015-09-05T17:00:57Z,1441472458,2015,17,0,248.709,248.709,82.724,124.6009,-999.00,-999.00,-999.0,no,no,no,90091,ITP,WHOI,NABOS,North
2015-09-05T18:00:00Z,1441476000,2015,18,0,248.75,248.75,82.723,124.6067,-999.00,-999.00,-999.0,no,no,no,90091,ITP,WHOI,NABOS,North
2015-09-05T19:00:28Z,1441479629,2015,19,0,248.792,248.792,82.7213,124.6111,-999.00,-999.00,-999.0,no,no,no,90091,ITP,WHOI,NABOS,North
2015-09-05T20:00:57Z,1441483258,2015,20,0,248.834,248.834,82.7197,124.6098,-999.00,-999.00,-999.0,no,no,no,90091,ITP,WHOI,NABOS,North
2015-09-05T21:00:00Z,1441486800,2015,21,0,248.875,248.875,82.7176,124.6053,-999.00,-999.00,-999.0,no,no,no,90091,ITP,WHOI,NABOS,North
2015-09-05T22:00:28Z,1441490429,2015,22,0,248.917,248.917,82.7152,124.5991,-999.00,-999.00,-999.0,no,no,no,90091,ITP,WHOI,NABOS,North
2015-09-05T23:00:57Z,1441494058,2015,23,0,248.959,248.959,82.7126,124.5887,-999.00,-999.00,-999.0,no,no,no,90091,ITP,WHOI,NABOS,North
2015-09-06T00:00:00Z,1441497600,2015,0,0,249.0,249.0,82.7094,124.5714,-999.00,-999.00,-999.0,no,no,no,90091,ITP,WHOI,NABOS,North
2015-09-06T01:00:28Z,1441501229,2015,1,0,249.042,249.042,82.7067,124.5518,-999.00,-999.00,-999.0,no,no,no,90091,ITP,WHOI,NABOS,North
2015-09-06T02:00:57Z,1441504858,2015,2,0,249.084,249.084,82.7049,124.5346,-999.00,-999.00,-999.0,no,no,no,90091,ITP,WHOI,NABOS,North
2015-09-06T03:00:00Z,1441508400,2015,3,0,249.125,249.125,82.7042,124.5219,-999.00,-999.00,-999.0,no,no,no,90091,ITP,WHOI,NABOS,North
2015-09-06T04:00:28Z,1441512029,2015,4,0,249.167,249.167,82.7046,124.5145,-999.00,-999.00,-999.0,no,no,no,90091,ITP,WHOI,NABOS,North
2015-09-06T05:00:57Z,1441515658,2015,5,0,249.209,249.209,82.7048,124.5113,-999.00,-999.00,-999.0,no,no,no,90091,ITP,WHOI,NABOS,North
2015-09-06T06:00:00Z,1441519200,2015,6,0,249.25,249.25,82.7049,124.5088,-999.00,-999.00,-999.0,no,no,no,90091,ITP,WHOI,NABOS,North
2015-09-06T07:00:28Z,1441522829,2015,7,0,249.292,249.292,82.7052,124.511,-999.00,-999.00,-999.0,no,no,no,90091,ITP,WHOI,NABOS,North
2015-09-06T08:00:57Z,1441526458,2015,8,0,249.334,249.334,82.7054,124.5164,-999.00,-999.00,-999.0,no,no,no,90091,ITP,WHOI,NABOS,North
2015-09-06T09:00:00Z,1441530000,2015,9,0,249.375,249.375,82.7053,124.5219,-999.00,-999.00,-999.0,no,no,no,90091,ITP,WHOI,NABOS,North
2015-09-06T10:00:28Z,1441533629,2015,10,0,249.417,249.417,82.7049,124.5264,-999.00,-999.00,-999.0,no,no,no,90091,ITP,WHOI,NABOS,North
2015-09-06T11:00:57Z,1441537258,2015,11,0,249.459,249.459,82.7049,124.5293,-999.00,-999.00,-999.0,no,no,no,90091,ITP,WHOI,NABOS,North
2015-09-06T12:00:00Z,1441540800,2015,12,0,249.5,249.5,82.7052,124.5318,-999.00,-999.00,-999.0,no,no,no,90091,ITP,WHOI,NABOS,North
2015-09-06T13:00:28Z,1441544429,2015,13,0,249.542,249.542,82.7054,124.5348,-999.00,-999.00,-999.0,no,no,no,90091,ITP,WHOI,NABOS,North
2015-09-06T14:00:57Z,1441548058,2015,14,0,249.584,249.584,82.7061,124.5374,-999.00,-999.00,-999.0,no,no,no,90091,ITP,WHOI,NABOS,North
2015-09-06T15:00:00Z,1441551600,2015,15,0,249.625,249.625,82.7069,124.5401,-999.00,-999.00,-999.0,no,no,no,90091,ITP,WHOI,NABOS,North
2015-09-06T16:00:28Z,1441555229,2015,16,0,249.667,249.667,82.7075,124.5419,-999.00,-999.00,-999.0,no,no,no,90091,ITP,WHOI,NABOS,North
2015-09-06T17:00:57Z,1441558858,2015,17,0,249.709,249.709,82.708,124.543,-999.00,-999.00,-999.0,no,no,no,90091,ITP,WHOI,NABOS,North
2015-09-06T18:00:00Z,1441562400,2015,18,0,249.75,249.75,82.7085,124.5455,-999.00,-999.00,-999.0,no,no,no,90091,ITP,WHOI,NABOS,North
2015-09-06T19:00:28Z,1441566029,2015,19,0,249.792,249.792,82.7091,124.5505,-999.00,-999.00,-999.0,no,no,no,90091,ITP,WHOI,NABOS,North
2015-09-06T20:00:57Z,1441569658,2015,20,0,249.834,249.834,82.7094,124.5595,-999.00,-999.00,-999.0,no,no,no,90091,ITP,WHOI,NABOS,North
2015-09-06T21:00:00Z,1441573200,2015,21,0,249.875,249.875,82.7087,124.571,-999.00,-999.00,-999.0,no,no,no,90091,ITP,WHOI,NABOS,North
2015-09-06T22:00:28Z,1441576829,2015,22,0,249.917,249.917,82.7077,124.5785,-999.00,-999.00,-999.0,no,no,no,90091,ITP,WHOI,NABOS,North
2015-09-06T23:00:57Z,1441580458,2015,23,0,249.959,249.959,82.7065,124.5827,-999.00,-999.00,-999.0,no,no,no,90091,ITP,WHOI,NABOS,North
2015-09-07T00:00:00Z,1441584000,2015,0,0,250.0,250.0,82.7058,124.5812,-999.00,-999.00,-999.0,no,no,no,90091,ITP,WHOI,NABOS,North
2015-09-07T01:00:28Z,1441587629,2015,1,0,250.042,250.042,82.7053,124.5779,-999.00,-999.00,-999.0,no,no,no,90091,ITP,WHOI,NABOS,North
2015-09-07T02:00:57Z,1441591258,2015,2,0,250.084,250.084,82.7048,124.5724,-999.00,-999.00,-999.0,no,no,no,90091,ITP,WHOI,NABOS,North
2015-09-07T03:00:00Z,1441594800,2015,3,0,250.125,250.125,82.7047,124.5594,-999.00,-999.00,-999.0,no,no,no,90091,ITP,WHOI,NABOS,North
2015-09-07T04:00:28Z,1441598429,2015,4,0,250.167,250.167,82.7054,124.5434,-999.00,-999.00,-999.0,no,no,no,90091,ITP,WHOI,NABOS,North
2015-09-07T05:00:57Z,1441602058,2015,5,0,250.209,250.209,82.7069,124.5312,-999.00,-999.00,-999.0,no,no,no,90091,ITP,WHOI,NABOS,North
2015-09-07T06:00:00Z,1441605600,2015,6,0,250.25,250.25,82.7082,124.5249,-999.00,-999.00,-999.0,no,no,no,90091,ITP,WHOI,NABOS,North
2015-09-07T07:00:28Z,1441609229,2015,7,0,250.292,250.292,82.7093,124.5189,-999.00,-999.00,-999.0,no,no,no,90091,ITP,WHOI,NABOS,North
2015-09-07T08:00:57Z,1441612858,2015,8,0,250.334,250.334,82.7103,124.5114,-999.00,-999.00,-999.0,no,no,no,90091,ITP,WHOI,NABOS,North
2015-09-07T09:00:00Z,1441616400,2015,9,0,250.375,250.375,82.7106,124.5035,-999.00,-999.00,-999.0,no,no,no,90091,ITP,WHOI,NABOS,North
2015-09-07T10:00:28Z,1441620029,2015,10,0,250.417,250.417,82.7105,124.4963,-999.00,-999.00,-999.0,no,no,no,90091,ITP,WHOI,NABOS,North
2015-09-07T11:00:57Z,1441623658,2015,11,0,250.459,250.459,82.71,124.4823,-999.00,-999.00,-999.0,no,no,no,90091,ITP,WHOI,NABOS,North
2015-09-07T12:00:00Z,1441627200,2015,12,0,250.5,250.5,82.7093,124.4603,-999.00,-999.00,-999.0,no,no,no,90091,ITP,WHOI,NABOS,North
2015-09-07T13:00:28Z,1441630829,2015,13,0,250.542,250.542,82.709,124.437,-999.00,-999.00,-999.0,no,no,no,90091,ITP,WHOI,NABOS,North
2015-09-07T14:00:57Z,1441634458,2015,14,0,250.584,250.584,82.7091,124.4121,-999.00,-999.00,-999.0,no,no,no,90091,ITP,WHOI,NABOS,North
2015-09-07T15:00:00Z,1441638000,2015,15,0,250.625,250.625,82.7095,124.3876,-999.00,-999.00,-999.0,no,no,no,90091,ITP,WHOI,NABOS,North
2015-09-07T16:00:28Z,1441641629,2015,16,0,250.667,250.667,82.7101,124.3642,-999.00,-999.00,-999.0,no,no,no,90091,ITP,WHOI,NABOS,North
2015-09-07T17:00:57Z,1441645258,2015,17,0,250.709,250.709,82.7112,124.3449,-999.00,-999.00,-999.0,no,no,no,90091,ITP,WHOI,NABOS,North
2015-09-07T18:00:00Z,1441648800,2015,18,0,250.75,250.75,82.7123,124.3259,-999.00,-999.00,-999.0,no,no,no,90091,ITP,WHOI,NABOS,North
2015-09-07T19:00:28Z,1441652429,2015,19,0,250.792,250.792,82.7132,124.3116,-999.00,-999.00,-999.0,no,no,no,90091,ITP,WHOI,NABOS,North
2015-09-07T20:00:57Z,1441656058,2015,20,0,250.834,250.834,82.714,124.3026,-999.00,-999.00,-999.0,no,no,no,90091,ITP,WHOI,NABOS,North
2015-09-07T21:00:00Z,1441659600,2015,21,0,250.875,250.875,82.7143,124.2949,-999.00,-999.00,-999.0,no,no,no,90091,ITP,WHOI,NABOS,North
2015-09-07T22:00:28Z,1441663229,2015,22,0,250.917,250.917,82.7143,124.285,-999.00,-999.00,-999.0,no,no,no,90091,ITP,WHOI,NABOS,North
2015-09-07T23:00:57Z,1441666858,2015,23,0,250.959,250.959,82.714,124.2766,-999.00,-999.00,-999.0,no,no,no,90091,ITP,WHOI,NABOS,North
2015-09-08T00:00:00Z,1441670400,2015,0,0,251.0,251.0,82.7137,124.2688,-999.00,-999.00,-999.0,no,no,no,90091,ITP,WHOI,NABOS,North
2015-09-08T01:00:28Z,1441674029,2015,1,0,251.042,251.042,82.7136,124.2561,-999.00,-999.00,-999.0,no,no,no,90091,ITP,WHOI,NABOS,North
2015-09-08T02:00:57Z,1441677658,2015,2,0,251.084,251.084,82.7139,124.2422,-999.00,-999.00,-999.0,no,no,no,90091,ITP,WHOI,NABOS,North
2015-09-08T03:00:00Z,1441681200,2015,3,0,251.125,251.125,82.7148,124.2266,-999.00,-999.00,-999.0,no,no,no,90091,ITP,WHOI,NABOS,North
2015-09-08T04:00:28Z,1441684829,2015,4,0,251.167,251.167,82.7162,124.213,-999.00,-999.00,-999.0,no,no,no,90091,ITP,WHOI,NABOS,North
2015-09-08T05:00:57Z,1441688458,2015,5,0,251.209,251.209,82.7182,124.203,-999.00,-999.00,-999.0,no,no,no,90091,ITP,WHOI,NABOS,North
2015-09-08T06:00:00Z,1441692000,2015,6,0,251.25,251.25,82.7202,124.1983,-999.00,-999.00,-999.0,no,no,no,90091,ITP,WHOI,NABOS,North
2015-09-08T07:00:28Z,1441695629,2015,7,0,251.292,251.292,82.7221,124.1977,-999.00,-999.00,-999.0,no,no,no,90091,ITP,WHOI,NABOS,North
2015-09-08T08:00:57Z,1441699258,2015,8,0,251.334,251.334,82.7239,124.2022,-999.00,-999.00,-999.0,no,no,no,90091,ITP,WHOI,NABOS,North
2015-09-08T09:00:00Z,1441702800,2015,9,0,251.375,251.375,82.7252,124.2092,-999.00,-999.00,-999.0,no,no,no,90091,ITP,WHOI,NABOS,North
2015-09-08T10:00:28Z,1441706429,2015,10,0,251.417,251.417,82.7258,124.2169,-999.00,-999.00,-999.0,no,no,no,90091,ITP,WHOI,NABOS,North
2015-09-08T11:00:57Z,1441710058,2015,11,0,251.459,251.459,82.7263,124.2221,-999.00,-999.00,-999.0,no,no,no,90091,ITP,WHOI,NABOS,North
2015-09-08T12:00:00Z,1441713600,2015,12,0,251.5,251.5,82.7267,124.2255,-999.00,-999.00,-999.0,no,no,no,90091,ITP,WHOI,NABOS,North
2015-09-08T13:00:28Z,1441717229,2015,13,0,251.542,251.542,82.727,124.2287,-999.00,-999.00,-999.0,no,no,no,90091,ITP,WHOI,NABOS,North
2015-09-08T14:00:57Z,1441720858,2015,14,0,251.584,251.584,82.7275,124.2299,-999.00,-999.00,-999.0,no,no,no,90091,ITP,WHOI,NABOS,North
2015-09-08T15:00:00Z,1441724400,2015,15,0,251.625,251.625,82.7285,124.2309,-999.00,-999.00,-999.0,no,no,no,90091,ITP,WHOI,NABOS,North
2015-09-08T16:00:28Z,1441728029,2015,16,0,251.667,251.667,82.7297,124.2329,-999.00,-999.00,-999.0,no,no,no,90091,ITP,WHOI,NABOS,North
2015-09-08T17:00:57Z,1441731658,2015,17,0,251.709,251.709,82.7311,124.2386,-999.00,-999.00,-999.0,no,no,no,90091,ITP,WHOI,NABOS,North
2015-09-08T18:00:00Z,1441735200,2015,18,0,251.75,251.75,82.7326,124.2507,-999.00,-999.00,-999.0,no,no,no,90091,ITP,WHOI,NABOS,North
2015-09-08T19:00:28Z,1441738829,2015,19,0,251.792,251.792,82.7338,124.2685,-999.00,-999.00,-999.0,no,no,no,90091,ITP,WHOI,NABOS,North
2015-09-08T20:00:57Z,1441742458,2015,20,0,251.834,251.834,82.7347,124.2916,-999.00,-999.00,-999.0,no,no,no,90091,ITP,WHOI,NABOS,North
2015-09-08T21:00:00Z,1441746000,2015,21,0,251.875,251.875,82.7351,124.3164,-999.00,-999.00,-999.0,no,no,no,90091,ITP,WHOI,NABOS,North
2015-09-08T22:00:28Z,1441749629,2015,22,0,251.917,251.917,82.7353,124.3371,-999.00,-999.00,-999.0,no,no,no,90091,ITP,WHOI,NABOS,North
2015-09-08T23:00:57Z,1441753258,2015,23,0,251.959,251.959,82.7358,124.3557,-999.00,-999.00,-999.0,no,no,no,90091,ITP,WHOI,NABOS,North
2015-09-09T00:00:00Z,1441756800,2015,0,0,252.0,252.0,82.7367,124.3724,-999.00,-999.00,-999.0,no,no,no,90091,ITP,WHOI,NABOS,North
2015-09-09T01:00:28Z,1441760429,2015,1,0,252.042,252.042,82.7386,124.3829,-999.00,-999.00,-999.0,no,no,no,90091,ITP,WHOI,NABOS,North
2015-09-09T02:00:57Z,1441764058,2015,2,0,252.084,252.084,82.7416,124.3931,-999.00,-999.00,-999.0,no,no,no,90091,ITP,WHOI,NABOS,North
2015-09-09T03:00:00Z,1441767600,2015,3,0,252.125,252.125,82.7457,124.4079,-999.00,-999.00,-999.0,no,no,no,90091,ITP,WHOI,NABOS,North
2015-09-09T04:00:28Z,1441771229,2015,4,0,252.167,252.167,82.7509,124.4313,-999.00,-999.00,-999.0,no,no,no,90091,ITP,WHOI,NABOS,North
2015-09-09T05:00:57Z,1441774858,2015,5,0,252.209,252.209,82.7566,124.4642,-999.00,-999.00,-999.0,no,no,no,90091,ITP,WHOI,NABOS,North
2015-09-09T06:00:00Z,1441778400,2015,6,0,252.25,252.25,82.7626,124.5086,-999.00,-999.00,-999.0,no,no,no,90091,ITP,WHOI,NABOS,North
2015-09-09T07:00:28Z,1441782029,2015,7,0,252.292,252.292,82.7678,124.5585,-999.00,-999.00,-999.0,no,no,no,90091,ITP,WHOI,NABOS,North
2015-09-09T08:00:57Z,1441785658,2015,8,0,252.334,252.334,82.7718,124.614,-999.00,-999.00,-999.0,no,no,no,90091,ITP,WHOI,NABOS,North
2015-09-09T09:00:00Z,1441789200,2015,9,0,252.375,252.375,82.7749,124.6704,-999.00,-999.00,-999.0,no,no,no,90091,ITP,WHOI,NABOS,North
2015-09-09T10:00:28Z,1441792829,2015,10,0,252.417,252.417,82.7771,124.7231,-999.00,-999.00,-999.0,no,no,no,90091,ITP,WHOI,NABOS,North
2015-09-09T11:00:57Z,1441796458,2015,11,0,252.459,252.459,82.7789,124.7714,-999.00,-999.00,-999.0,no,no,no,90091,ITP,WHOI,NABOS,North
2015-09-09T12:00:00Z,1441800000,2015,12,0,252.5,252.5,82.7801,124.8144,-999.00,-999.00,-999.0,no,no,no,90091,ITP,WHOI,NABOS,North
2015-09-09T13:00:28Z,1441803629,2015,13,0,252.542,252.542,82.7813,124.8509,-999.00,-999.00,-999.0,no,no,no,90091,ITP,WHOI,NABOS,North
2015-09-09T14:00:57Z,1441807258,2015,14,0,252.584,252.584,82.7834,124.8827,-999.00,-999.00,-999.0,no,no,no,90091,ITP,WHOI,NABOS,North
2015-09-09T15:00:00Z,1441810800,2015,15,0,252.625,252.625,82.7864,124.9137,-999.00,-999.00,-999.0,no,no,no,90091,ITP,WHOI,NABOS,North
2015-09-09T16:00:28Z,1441814429,2015,16,0,252.667,252.667,82.7903,124.9439,-999.00,-999.00,-999.0,no,no,no,90091,ITP,WHOI,NABOS,North
2015-09-09T17:00:57Z,1441818058,2015,17,0,252.709,252.709,82.7948,124.9734,-999.00,-999.00,-999.0,no,no,no,90091,ITP,WHOI,NABOS,North
2015-09-09T18:00:00Z,1441821600,2015,18,0,252.75,252.75,82.7999,125.0086,-999.00,-999.00,-999.0,no,no,no,90091,ITP,WHOI,NABOS,North
2015-09-09T19:00:28Z,1441825229,2015,19,0,252.792,252.792,82.8053,125.0511,-999.00,-999.00,-999.0,no,no,no,90091,ITP,WHOI,NABOS,North
2015-09-09T20:00:57Z,1441828858,2015,20,0,252.834,252.834,82.8104,125.1015,-999.00,-999.00,-999.0,no,no,no,90091,ITP,WHOI,NABOS,North
2015-09-09T21:00:00Z,1441832400,2015,21,0,252.875,252.875,82.8144,125.1563,-999.00,-999.00,-999.0,no,no,no,90091,ITP,WHOI,NABOS,North
2015-09-09T22:00:28Z,1441836029,2015,22,0,252.917,252.917,82.8176,125.2102,-999.00,-999.00,-999.0,no,no,no,90091,ITP,WHOI,NABOS,North
2015-09-09T23:00:57Z,1441839658,2015,23,0,252.959,252.959,82.8195,125.2622,-999.00,-999.00,-999.0,no,no,no,90091,ITP,WHOI,NABOS,North
2015-09-10T00:00:00Z,1441843200,2015,0,0,253.0,253.0,82.8207,125.3073,-999.00,-999.00,-999.0,no,no,no,90091,ITP,WHOI,NABOS,North
2015-09-10T01:00:28Z,1441846829,2015,1,0,253.042,253.042,82.8214,125.3427,-999.00,-999.00,-999.0,no,no,no,90091,ITP,WHOI,NABOS,North
2015-09-10T02:00:57Z,1441850458,2015,2,0,253.084,253.084,82.8225,125.3676,-999.00,-999.00,-999.0,no,no,no,90091,ITP,WHOI,NABOS,North
2015-09-10T03:00:00Z,1441854000,2015,3,0,253.125,253.125,82.8247,125.3839,-999.00,-999.00,-999.0,no,no,no,90091,ITP,WHOI,NABOS,North
2015-09-10T04:00:28Z,1441857629,2015,4,0,253.167,253.167,82.8289,125.4041,-999.00,-999.00,-999.0,no,no,no,90091,ITP,WHOI,NABOS,North
2015-09-10T05:00:57Z,1441861258,2015,5,0,253.209,253.209,82.8342,125.4302,-999.00,-999.00,-999.0,no,no,no,90091,ITP,WHOI,NABOS,North
2015-09-10T06:00:00Z,1441864800,2015,6,0,253.25,253.25,82.8406,125.4684,-999.00,-999.00,-999.0,no,no,no,90091,ITP,WHOI,NABOS,North
2015-09-10T07:00:28Z,1441868429,2015,7,0,253.292,253.292,82.8472,125.5184,-999.00,-999.00,-999.0,no,no,no,90091,ITP,WHOI,NABOS,North
2015-09-10T08:00:57Z,1441872058,2015,8,0,253.334,253.334,82.8531,125.5799,-999.00,-999.00,-999.0,no,no,no,90091,ITP,WHOI,NABOS,North
2015-09-10T09:00:00Z,1441875600,2015,9,0,253.375,253.375,82.8575,125.6474,-999.00,-999.00,-999.0,no,no,no,90091,ITP,WHOI,NABOS,North
2015-09-10T10:00:28Z,1441879229,2015,10,0,253.417,253.417,82.8605,125.715,-999.00,-999.00,-999.0,no,no,no,90091,ITP,WHOI,NABOS,North
2015-09-10T11:00:57Z,1441882858,2015,11,0,253.459,253.459,82.8624,125.7774,-999.00,-999.00,-999.0,no,no,no,90091,ITP,WHOI,NABOS,North
2015-09-10T12:00:00Z,1441886400,2015,12,0,253.5,253.5,82.8631,125.8262,-999.00,-999.00,-999.0,no,no,no,90091,ITP,WHOI,NABOS,North
2015-09-10T13:00:28Z,1441890029,2015,13,0,253.542,253.542,82.8648,125.8613,-999.00,-999.00,-999.0,no,no,no,90091,ITP,WHOI,NABOS,North
2015-09-10T14:00:57Z,1441893658,2015,14,0,253.584,253.584,82.8681,125.8875,-999.00,-999.00,-999.0,no,no,no,90091,ITP,WHOI,NABOS,North
2015-09-10T15:00:00Z,1441897200,2015,15,0,253.625,253.625,82.8731,125.9106,-999.00,-999.00,-999.0,no,no,no,90091,ITP,WHOI,NABOS,North
2015-09-10T16:00:28Z,1441900829,2015,16,0,253.667,253.667,82.8797,125.9411,-999.00,-999.00,-999.0,no,no,no,90091,ITP,WHOI,NABOS,North
2015-09-10T17:00:57Z,1441904458,2015,17,0,253.709,253.709,82.8875,125.9897,-999.00,-999.00,-999.0,no,no,no,90091,ITP,WHOI,NABOS,North
2015-09-10T18:00:00Z,1441908000,2015,18,0,253.75,253.75,82.8952,126.0545,-999.00,-999.00,-999.0,no,no,no,90091,ITP,WHOI,NABOS,North
2015-09-10T19:00:28Z,1441911629,2015,19,0,253.792,253.792,82.9024,126.1276,-999.00,-999.00,-999.0,no,no,no,90091,ITP,WHOI,NABOS,North
2015-09-10T20:00:57Z,1441915258,2015,20,0,253.834,253.834,82.9079,126.2004,-999.00,-999.00,-999.0,no,no,no,90091,ITP,WHOI,NABOS,North
2015-09-10T21:00:00Z,1441918800,2015,21,0,253.875,253.875,82.9116,126.2675,-999.00,-999.00,-999.0,no,no,no,90091,ITP,WHOI,NABOS,North
2015-09-10T22:00:28Z,1441922429,2015,22,0,253.917,253.917,82.9145,126.3232,-999.00,-999.00,-999.0,no,no,no,90091,ITP,WHOI,NABOS,North
2015-09-10T23:00:57Z,1441926058,2015,23,0,253.959,253.959,82.9173,126.3696,-999.00,-999.00,-999.0,no,no,no,90091,ITP,WHOI,NABOS,North
2015-09-11T00:00:00Z,1441929600,2015,0,0,254.0,254.0,82.9217,126.407,-999.00,-999.00,-999.0,no,no,no,90091,ITP,WHOI,NABOS,North
2015-09-11T01:00:28Z,1441933229,2015,1,0,254.042,254.042,82.9277,126.439,-999.00,-999.00,-999.0,no,no,no,90091,ITP,WHOI,NABOS,North
2015-09-11T02:00:57Z,1441936858,2015,2,0,254.084,254.084,82.935,126.4745,-999.00,-999.00,-999.0,no,no,no,90091,ITP,WHOI,NABOS,North
2015-09-11T03:00:00Z,1441940400,2015,3,0,254.125,254.125,82.9436,126.5173,-999.00,-999.00,-999.0,no,no,no,90091,ITP,WHOI,NABOS,North
2015-09-11T04:00:28Z,1441944029,2015,4,0,254.167,254.167,82.9525,126.5615,-999.00,-999.00,-999.0,no,no,no,90091,ITP,WHOI,NABOS,North
2015-09-11T05:00:57Z,1441947658,2015,5,0,254.209,254.209,82.9609,126.6098,-999.00,-999.00,-999.0,no,no,no,90091,ITP,WHOI,NABOS,North
2015-09-11T06:00:00Z,1441951200,2015,6,0,254.25,254.25,82.9687,126.6647,-999.00,-999.00,-999.0,no,no,no,90091,ITP,WHOI,NABOS,North
2015-09-11T07:00:28Z,1441954829,2015,7,0,254.292,254.292,82.9766,126.7175,-999.00,-999.00,-999.0,no,no,no,90091,ITP,WHOI,NABOS,North
2015-09-11T08:00:57Z,1441958458,2015,8,0,254.334,254.334,82.9847,126.7693,-999.00,-999.00,-999.0,no,no,no,90091,ITP,WHOI,NABOS,North
2015-09-11T09:00:00Z,1441962000,2015,9,0,254.375,254.375,82.9926,126.8151,-999.00,-999.00,-999.0,no,no,no,90091,ITP,WHOI,NABOS,North
2015-09-11T10:00:28Z,1441965629,2015,10,0,254.417,254.417,83.0008,126.8564,-999.00,-999.00,-999.0,no,no,no,90091,ITP,WHOI,NABOS,North
2015-09-11T11:00:57Z,1441969258,2015,11,0,254.459,254.459,83.0099,126.8931,-999.00,-999.00,-999.0,no,no,no,90091,ITP,WHOI,NABOS,North
2015-09-11T12:00:00Z,1441972800,2015,12,0,254.5,254.5,83.0187,126.9263,-999.00,-999.00,-999.0,no,no,no,90091,ITP,WHOI,NABOS,North
2015-09-11T13:00:28Z,1441976429,2015,13,0,254.542,254.542,83.0277,126.9573,-999.00,-999.00,-999.0,no,no,no,90091,ITP,WHOI,NABOS,North
2015-09-11T14:00:57Z,1441980058,2015,14,0,254.584,254.584,83.0369,126.9926,-999.00,-999.00,-999.0,no,no,no,90091,ITP,WHOI,NABOS,North
2015-09-11T15:00:00Z,1441983600,2015,15,0,254.625,254.625,83.0457,127.0331,-999.00,-999.00,-999.0,no,no,no,90091,ITP,WHOI,NABOS,North
2015-09-11T16:00:28Z,1441987229,2015,16,0,254.667,254.667,83.0539,127.0749,-999.00,-999.00,-999.0,no,no,no,90091,ITP,WHOI,NABOS,North
2015-09-11T17:00:57Z,1441990858,2015,17,0,254.709,254.709,83.0615,127.1145,-999.00,-999.00,-999.0,no,no,no,90091,ITP,WHOI,NABOS,North
2015-09-11T18:00:00Z,1441994400,2015,18,0,254.75,254.75,83.0686,127.1497,-999.00,-999.00,-999.0,no,no,no,90091,ITP,WHOI,NABOS,North
2015-09-11T19:00:28Z,1441998029,2015,19,0,254.792,254.792,83.0757,127.177,-999.00,-999.00,-999.0,no,no,no,90091,ITP,WHOI,NABOS,North
2015-09-11T20:00:57Z,1442001658,2015,20,0,254.834,254.834,83.0833,127.1974,-999.00,-999.00,-999.0,no,no,no,90091,ITP,WHOI,NABOS,North
2015-09-11T21:00:00Z,1442005200,2015,21,0,254.875,254.875,83.091,127.2108,-999.00,-999.00,-999.0,no,no,no,90091,ITP,WHOI,NABOS,North
2015-09-11T22:00:28Z,1442008829,2015,22,0,254.917,254.917,83.0993,127.2188,-999.00,-999.00,-999.0,no,no,no,90091,ITP,WHOI,NABOS,North
2015-09-11T23:00:57Z,1442012458,2015,23,0,254.959,254.959,83.1078,127.2262,-999.00,-999.00,-999.0,no,no,no,90091,ITP,WHOI,NABOS,North
2015-09-12T00:00:00Z,1442016000,2015,0,0,255.0,255.0,83.1167,127.2355,-999.00,-999.00,-999.0,no,no,no,90091,ITP,WHOI,NABOS,North
2015-09-12T01:00:28Z,1442019629,2015,1,0,255.042,255.042,83.1259,127.2472,-999.00,-999.00,-999.0,no,no,no,90091,ITP,WHOI,NABOS,North
2015-09-12T02:00:57Z,1442023258,2015,2,0,255.084,255.084,83.1344,127.2624,-999.00,-999.00,-999.0,no,no,no,90091,ITP,WHOI,NABOS,North
2015-09-12T03:00:00Z,1442026800,2015,3,0,255.125,255.125,83.142,127.2832,-999.00,-999.00,-999.0,no,no,no,90091,ITP,WHOI,NABOS,North
2015-09-12T04:00:28Z,1442030429,2015,4,0,255.167,255.167,83.1488,127.3027,-999.00,-999.00,-999.0,no,no,no,90091,ITP,WHOI,NABOS,North
2015-09-12T05:00:57Z,1442034058,2015,5,0,255.209,255.209,83.1552,127.3186,-999.00,-999.00,-999.0,no,no,no,90091,ITP,WHOI,NABOS,North
2015-09-12T06:00:00Z,1442037600,2015,6,0,255.25,255.25,83.1609,127.3304,-999.00,-999.00,-999.0,no,no,no,90091,ITP,WHOI,NABOS,North
2015-09-12T07:00:28Z,1442041229,2015,7,0,255.292,255.292,83.1671,127.335,-999.00,-999.00,-999.0,no,no,no,90091,ITP,WHOI,NABOS,North
2015-09-12T08:00:57Z,1442044858,2015,8,0,255.334,255.334,83.1731,127.333,-999.00,-999.00,-999.0,no,no,no,90091,ITP,WHOI,NABOS,North
2015-09-12T09:00:00Z,1442048400,2015,9,0,255.375,255.375,83.1794,127.3225,-999.00,-999.00,-999.0,no,no,no,90091,ITP,WHOI,NABOS,North
2015-09-12T10:00:28Z,1442052029,2015,10,0,255.417,255.417,83.1861,127.3084,-999.00,-999.00,-999.0,no,no,no,90091,ITP,WHOI,NABOS,North
2015-09-12T11:00:57Z,1442055658,2015,11,0,255.459,255.459,83.1937,127.2896,-999.00,-999.00,-999.0,no,no,no,90091,ITP,WHOI,NABOS,North
2015-09-12T12:00:00Z,1442059200,2015,12,0,255.5,255.5,83.201,127.2707,-999.00,-999.00,-999.0,no,no,no,90091,ITP,WHOI,NABOS,North
2015-09-12T13:00:28Z,1442062829,2015,13,0,255.542,255.542,83.2083,127.2503,-999.00,-999.00,-999.0,no,no,no,90091,ITP,WHOI,NABOS,North
2015-09-12T14:00:57Z,1442066458,2015,14,0,255.584,255.584,83.2155,127.2319,-999.00,-999.00,-999.0,no,no,no,90091,ITP,WHOI,NABOS,North
2015-09-12T15:00:00Z,1442070000,2015,15,0,255.625,255.625,83.2227,127.2153,-999.00,-999.00,-999.0,no,no,no,90091,ITP,WHOI,NABOS,North
2015-09-12T16:00:28Z,1442073629,2015,16,0,255.667,255.667,83.2293,127.2005,-999.00,-999.00,-999.0,no,no,no,90091,ITP,WHOI,NABOS,North
2015-09-12T17:00:57Z,1442077258,2015,17,0,255.709,255.709,83.2352,127.1867,-999.00,-999.00,-999.0,no,no,no,90091,ITP,WHOI,NABOS,North